Regional Weather Roundup
Issued by NWS Cleveland, OH

Home | Current Version | Previous Version | Text Only | Print | Product List | Glossary Off
Versions: 1 2 3 4 5 6 7 8 9 10 11 12 13 14 15 16 17 18 19 20 21 22 23 24 25 26 27 28 29 30 31 32 33 34 35 36 37 38 39 40 41 42 43 44 45 46 47 48 49 50

000
ASUS41 KCLE 300010
RWRCLE
OHIO REGIONAL WEATHER ROUNDUP
NATIONAL WEATHER SERVICE WILMINGTON, OH
800 PM EDT SUN MAR 29 2015

NOTE: "FAIR" INDICATES FEW OR NO CLOUDS BELOW 12,000 FEET WITH NO
SIGNIFICANT WEATHER AND/OR OBSTRUCTIONS TO VISIBILITY.

OHZ001>008-015>018-024>027-034-035-043-044-300100-
   NORTHWEST OHIO

CITY           SKY/WX    TMP DP  RH WIND       PRES   REMARKS
DEFIANCE       CLOUDY    41  25  53 S14       29.88F
FINDLAY        LGT RAIN  42  24  49 S22G28    29.90R
TOLEDO EXPRESS CLOUDY    40  23  50 S13G20    29.88S
TOLEDO EXEC    CLOUDY    42  22  44 S17G28    29.89R
LIMA           CLOUDY    42  25  50 S15G22    29.91R
$$

OHZ009>014-019>023-028>033-038-089-300100-
   NORTHEAST OHIO

CITY           SKY/WX    TMP DP  RH WIND       PRES   REMARKS
CLE-HOPKINS    CLOUDY    43  12  28 S14G23    29.94R
CLE-LAKEFRONT  CLOUDY    45  10  24 S20G31    29.91R
CUY CO. ARPT   CLOUDY    45  16  31 S12G23    29.94R
LORAIN-ELYRIA  CLOUDY    43  14  31 S17G24    29.90S
ASHTABULA      CLOUDY    41  13  31 SW12      29.94R
AKRON-CANTON   CLOUDY    43   9  24 S18G25    29.94F
WOOSTER        CLOUDY    41  13  31 S16       29.93S
MANSFIELD      CLOUDY    42  14  32 S18G29    29.89F
YOUNGSTOWN     CLOUDY    42  10  27 S15G23    29.93F
$$

OHZ042-051>053-060>062-070>072-077>081-300100-
  SOUTHWEST OHIO

CITY           SKY/WX    TMP DP  RH WIND       PRES   REMARKS
CINC-COVINGTON CLOUDY    52  15  23 W6        30.00R
CINC-LUNKEN    CLOUDY    52  17  25 SW10      30.01R
HAMILTON       CLOUDY    51  18  27 W3        30.01R
DAYTON         RAIN      43  27  53 S22G31    29.93F
WRIGHT-PAT AFB LGT RAIN  43  25  50 S17G28    29.95S
DAYTON GENERAL CLOUDY    47  20  34 SW6       29.99R
WILMINGTON     LGT RAIN  45  21  38 SW6       29.98R
$$

OHZ036-037-039>041-045>050-054>059-063>069-073>076-082>088-300100-
  CENTRAL AND SOUTHEAST OHIO

CITY           SKY/WX    TMP DP  RH WIND       PRES   REMARKS
COLUMBUS       CLOUDY    46  12  25 S12       29.97S
OSU AIRPORT    LGT RAIN  45  15  30 S15       29.95F
BOLTON FIELD   CLOUDY   N/A N/A N/A S12       29.96F
RICKENBACK AFB CLOUDY    44  16  32 S9        29.98R
NEWARK         CLOUDY    47  12  24 S10       29.97F
MARION         CLOUDY    44  15  31 S21       29.93R
LANCASTER      CLOUDY    47  11  23 S9        29.98F
ZANESVILLE     CLOUDY    44   9  23 S12       29.98F
NEW PHILLY     CLOUDY    46   9  22 S9        29.97F
$$



USA.gov is the U.S. government's official web portal to all federal, state and local government web resources and services.